Location: Ústí nad Labem
(50.6611°N, 14.0531°E)
Time: 06:00:04
(UTC+02:00)

Tiros 1 despin weight - All Passes

Search period start: 22 April 2024 00:00
Search period end: 02 May 2024 00:00
Orbit: 579 x 623 km, 48.2° (Epoch: 21 April)

Date Brightness Start Highest point End Pass type
(mag) Time Alt. Az. Time Alt. Az. Time Alt. Az.
22 Apr - 12:11:56 10° SSE 12:14:04 13° SE 12:16:15 10° ESE daylight
22 Apr - 13:50:16 10° SW 13:54:24 39° SSE 13:58:36 10° E daylight
22 Apr - 15:30:50 10° WSW 15:35:16 64° S 15:39:46 10° E daylight
22 Apr - 17:11:52 10° W 17:16:13 48° SSW 17:20:37 10° ESE daylight
22 Apr - 18:53:30 10° W 18:56:45 20° SW 19:00:01 10° S daylight
23 Apr - 12:21:24 10° SSW 12:24:39 20° SE 12:27:57 10° E daylight
23 Apr - 14:00:54 10° WSW 14:05:12 50° SSE 14:09:34 10° E daylight
23 Apr - 15:41:43 10° W 15:46:09 64° S 15:50:38 10° ESE daylight
23 Apr - 17:22:50 10° W 17:27:01 38° SSW 17:31:13 10° SE daylight
23 Apr - 19:05:20 10° WSW 19:07:19 13° SW 19:09:18 10° SSW daylight
24 Apr - 12:31:29 10° SSW 12:35:17 29° SSE 12:39:09 10° E daylight
24 Apr - 14:11:38 10° WSW 14:16:01 59° S 14:20:27 10° E daylight
24 Apr - 15:52:35 10° W 15:57:00 58° S 16:01:27 10° ESE daylight
24 Apr - 17:33:52 10° W 17:37:42 28° SSW 17:41:34 10° SSE daylight
25 Apr - 11:03:33 10° SSE 11:05:40 13° SE 11:07:49 10° ESE daylight
25 Apr - 12:41:52 10° SW 12:45:59 39° SSE 12:50:10 10° E daylight
25 Apr - 14:22:26 10° WSW 14:26:51 64° S 14:31:19 10° E daylight
25 Apr - 16:03:28 10° W 16:07:47 48° SSW 16:12:10 10° ESE daylight
25 Apr - 17:45:06 10° W 17:48:19 19° SW 17:51:33 10° S daylight
26 Apr - 11:12:58 10° SSW 11:16:12 20° SE 11:19:28 10° E daylight
26 Apr - 12:52:28 10° WSW 12:56:44 50° SSE 13:01:04 10° E daylight
26 Apr - 14:33:16 10° W 14:37:40 64° S 14:42:09 10° ESE daylight
26 Apr - 16:14:23 10° W 16:18:32 37° SSW 16:22:42 10° SE daylight
26 Apr - 17:56:55 10° WSW 17:58:50 12° SW 18:00:45 10° SSW daylight
27 Apr - 11:23:00 10° SSW 11:26:47 29° SSE 11:30:37 10° E daylight
27 Apr - 13:03:10 10° WSW 13:07:31 59° S 13:11:55 10° E daylight
27 Apr - 14:44:06 10° W 14:48:29 58° S 14:52:54 10° ESE daylight
27 Apr - 16:25:23 10° W 16:29:11 27° SSW 16:33:00 10° SSE daylight
28 Apr - 09:55:02 10° SSE 09:57:08 13° SE 09:59:14 10° ESE daylight
28 Apr - 11:33:21 10° SW 11:37:27 39° SSE 11:41:35 10° E daylight
28 Apr - 13:13:55 10° WSW 13:18:17 64° S 13:22:44 10° E daylight
28 Apr - 14:54:57 10° W 14:59:14 48° SSW 15:03:34 10° ESE daylight
28 Apr - 16:36:35 10° W 16:39:45 19° SW 16:42:56 10° S daylight
29 Apr - 10:04:24 10° SSW 10:07:37 20° SE 10:10:51 10° E daylight
29 Apr - 11:43:54 10° WSW 11:48:08 50° SSE 11:52:27 10° E daylight
29 Apr - 13:24:42 10° W 13:29:05 63° S 13:33:31 10° ESE daylight
29 Apr - 15:05:48 10° W 15:09:55 37° SSW 15:14:04 10° SE daylight
29 Apr - 16:48:22 10° WSW 16:50:13 12° SW 16:52:03 10° SSW daylight
30 Apr - 10:14:23 10° SSW 10:18:10 29° SSE 10:21:58 10° E daylight
30 Apr - 11:54:32 10° WSW 11:58:52 59° S 12:03:15 10° E daylight
30 Apr - 13:35:29 10° W 13:39:50 57° S 13:44:14 10° ESE daylight
30 Apr - 15:16:46 10° W 15:20:31 27° SSW 15:24:19 10° SSE daylight
01 May - 08:46:23 10° SSE 08:48:27 13° SE 08:50:32 10° ESE daylight
01 May - 10:24:42 10° SW 10:28:46 39° SSE 10:32:53 10° E daylight
01 May - 12:05:16 10° WSW 12:09:37 64° S 12:14:01 10° E daylight
01 May - 13:46:16 10° W 13:50:32 47° SSW 13:54:51 10° ESE daylight
01 May - 15:27:55 10° W 15:31:02 19° SW 15:34:11 10° S daylight
